MST,Max TemperatureF,Mean TemperatureF,Min TemperatureF,Max Dew PointF,MeanDew PointF,Min DewpointF,Max Humidity, Mean Humidity, Min Humidity, Max Sea Level PressureIn, Mean Sea Level PressureIn, Min Sea Level PressureIn, Max VisibilityMiles, Mean VisibilityMiles, Min VisibilityMiles, Max Wind SpeedMPH, Mean Wind SpeedMPH, Max Gust SpeedMPH,PrecipitationIn, CloudCover, Events, WindDirDegrees
2012-11-1,56,46,35,35,33,31,89,65,41,30.01,29.95,29.88,10,10,10,23,10,30,0.00,1,,197
2012-11-2,53,40,27,34,29,24,92,62,32,30.22,30.16,30.04,10,10,10,8,3,12,0.00,0,,187
2012-11-3,55,41,27,32,29,25,92,65,38,30.30,30.25,30.20,10,10,9,14,4,16,0.00,0,,41
2012-11-4,56,45,33,33,31,29,89,65,41,30.47,30.36,30.25,10,10,10,12,5,16,0.00,1,,207
2012-11-5,55,42,29,38,34,27,92,72,51,30.49,30.41,30.35,10,10,10,16,4,20,0.00,0,,39
2012-11-6,58,45,31,38,34,30,100,74,47,30.42,30.30,30.15,10,10,10,10,3,16,0.00,0,,41
2012-11-7,63,46,29,36,30,27,96,62,27,30.14,29.99,29.81,10,10,10,10,10,14,0.00,1,,164
2012-11-8,58,49,40,37,33,30,79,58,36,29.79,29.65,29.55,10,10,10,22,5,29,T,7,Rain,182
2012-11-9,40,34,28,36,30,25,100,88,75,29.71,29.65,29.55,10,7,1,20,10,26,0.20,8,Snow,212
2012-11-10,28,21,14,25,19,9,88,69,50,30.10,29.78,29.63,10,6,1,17,8,25,0.02,8,Snow,233
2012-11-11,25,16,7,18,12,3,88,72,55,30.50,30.30,30.02,10,10,10,17,6,22,0.00,4,,198
2012-11-12,33,27,21,27,20,15,92,72,51,30.58,30.48,30.36,10,8,2,12,4,15,0.01,7,Snow,201
2012-11-13,32,30,28,30,27,25,100,93,85,30.48,30.38,30.27,10,9,2,8,3,9,0.01,8,Snow,50
2012-11-14,33,31,29,32,31,28,100,95,89,30.40,30.28,30.21,10,3,0,7,2,9,0.17,8,Fog-Snow,231
2012-11-15,35,29,23,32,29,20,100,88,75,30.43,30.35,30.26,10,6,1,8,4,12,0.00,6,,51
2012-11-16,44,33,21,32,27,18,88,77,65,30.26,30.16,30.11,10,10,10,10,3,13,0.00,4,,52
2012-11-17,48,40,31,37,34,30,92,76,60,30.13,30.03,29.86,10,10,10,14,4,21,0.01,7,Rain,126
2012-11-18,46,41,36,40,36,32,92,81,70,30.14,29.96,29.84,10,10,4,28,14,37,0.19,6,Rain,196
2012-11-19,48,42,35,38,36,33,92,77,61,30.25,30.19,30.15,10,10,10,16,7,20,T,7,,193
2012-11-20,48,44,40,43,37,32,96,78,60,30.16,30.09,29.96,10,10,10,16,6,23,0.04,8,Rain,191
2012-11-21,51,42,32,37,33,28,82,66,50,30.14,29.93,29.85,10,10,7,32,15,46,0.02,5,Snow,215
2012-11-22,37,30,23,28,24,21,92,74,56,30.63,30.45,30.18,10,10,10,14,7,20,0.00,0,,206
2012-11-23,41,31,21,25,21,17,96,70,44,30.64,30.53,30.35,10,10,10,8,3,9,0.00,0,,40
2012-11-24,38,32,25,32,27,22,92,78,64,30.33,30.22,30.04,10,10,8,7,2,8,0.04,6,Rain,49
2012-11-25,36,33,30,36,32,17,100,77,54,30.28,30.04,29.94,10,6,2,15,5,18,0.04,8,Rain-Snow,226
2012-11-26,32,25,18,24,19,14,88,73,58,30.41,30.36,30.27,10,10,10,9,5,12,0.00,1,,48
2012-11-27,40,30,20,27,23,18,92,76,59,30.41,30.34,30.22,10,10,10,8,4,10,0.00,1,,44
2012-11-28,44,34,23,30,25,20,88,69,49,30.30,30.18,30.01,10,10,10,9,4,12,T,1,,50
2012-11-29,45,39,32,34,32,29,89,77,65,30.14,30.06,29.99,10,10,9,17,6,23,T,3,Rain,197
2012-11-30,45,39,33,40,37,30,93,86,79,29.99,29.89,29.82,10,10,7,21,9,26,0.26,8,Rain,197